timestamp,surface_pressure_avg,surface_temp_avg,battery_voltage,lat,long
2021-07-06 00:09:01+00:00,266.2314,11.4,12.97,47.84626,-54.09684
2021-07-06 00:19:01+00:00,261.7681,11.4,12.73,47.84626,-54.09684
2021-07-06 00:29:01+00:00,254.2147,11.4,12.73,47.84626,-54.09684
2021-07-06 00:39:01+00:00,249.2848,11.4,12.73,47.84626,-54.09684
2021-07-06 00:49:01+00:00,247.1847,11.4,12.73,47.84626,-54.09684
2021-07-06 00:59:01+00:00,243.6698,11.4,12.73,47.84626,-54.09684
2021-07-06 01:09:01+00:00,238.3464,11.4,12.73,47.84626,-54.09684
2021-07-06 01:19:01+00:00,232.3331,11.4,12.73,47.84626,-54.09684
2021-07-06 01:29:01+00:00,229.6031,11.4,12.73,47.84626,-54.09684
2021-07-06 01:39:01+00:00,227.8148,11.4,12.73,47.84626,-54.09684
2021-07-06 01:49:01+00:00,225.7948,11.4,12.73,47.84626,-54.09684
2021-07-06 01:59:01+00:00,223.4081,11.4,12.73,47.84626,-54.09684
2021-07-06 02:09:01+00:00,223.0248,11.4,12.73,47.84626,-54.09684
2021-07-06 02:19:01+00:00,224.1081,11.4,12.73,47.84626,-54.09684
2021-07-06 02:29:01+00:00,220.3981,11.4,12.73,47.84626,-54.09684
2021-07-06 02:39:01+00:00,217.1614,11.4,12.73,47.84626,-54.09684
2021-07-06 02:49:01+00:00,218.1181,11.4,12.73,47.84626,-54.09684
2021-07-06 02:59:01+00:00,218.2564,11.4,12.73,47.84626,-54.09684
2021-07-06 03:09:01+00:00,216.1431,11.49,12.73,47.84626,-54.09684
2021-07-06 03:19:01+00:00,215.2798,11.5,12.73,47.84626,-54.09684
2021-07-06 03:29:01+00:00,218.3848,11.53,12.73,47.84626,-54.09684
2021-07-06 03:39:01+00:00,220.6481,11.57,12.73,47.84626,-54.09684
2021-07-06 03:49:01+00:00,220.9864,11.6,12.73,47.84626,-54.09684
2021-07-06 03:59:01+00:00,223.9664,11.6,12.73,47.84626,-54.09684
2021-07-06 04:09:01+00:00,225.9681,11.62,12.73,47.84626,-54.09684
2021-07-06 04:19:00+00:00,225.5214,11.67,12.73,47.84626,-54.09684
2021-07-06 04:29:00+00:00,224.5015,11.69,12.73,47.84626,-54.09684
2021-07-06 04:39:00+00:00,225.5498,11.69,12.73,47.84626,-54.09684
2021-07-06 04:49:00+00:00,227.8714,11.7,12.73,47.84626,-54.09684
2021-07-06 04:59:00+00:00,230.328,11.7,12.73,47.84626,-54.09684
2021-07-06 05:09:00+00:00,229.2432,11.7,12.73,47.84626,-54.09684
2021-07-06 05:19:01+00:00,232.0998,11.7,12.65,47.84626,-54.09684
2021-07-06 05:29:01+00:00,239.1414,11.7,12.65,47.84626,-54.09684
2021-07-06 05:39:01+00:00,241.6348,11.69,12.65,47.84626,-54.09684
2021-07-06 05:49:01+00:00,241.0764,11.69,12.65,47.84626,-54.09684
2021-07-06 05:59:01+00:00,245.7398,11.7,12.65,47.84626,-54.09684
2021-07-06 06:09:01+00:00,254.4547,11.7,12.65,47.84626,-54.09684
2021-07-06 06:19:01+00:00,258.0348,11.7,12.65,47.84626,-54.09684
2021-07-06 06:29:01+00:00,259.3964,11.7,12.65,47.84626,-54.09684
2021-07-06 06:39:01+00:00,265.3798,11.7,12.65,47.84626,-54.09684
2021-07-06 06:49:01+00:00,273.1564,11.7,12.65,47.84626,-54.09684
2021-07-06 06:59:01+00:00,276.6346,11.7,12.65,47.84626,-54.09684
2021-07-06 07:09:01+00:00,280.173,11.7,12.65,47.84626,-54.09684
2021-07-06 07:19:01+00:00,285.8297,11.7,12.65,47.84626,-54.09684
2021-07-06 07:29:01+00:00,289.198,11.7,12.65,47.84626,-54.09684
2021-07-06 07:39:01+00:00,291.0181,11.7,12.65,47.84626,-54.09684
2021-07-06 07:49:01+00:00,290.5564,11.69,12.65,47.84626,-54.09684
2021-07-06 07:59:01+00:00,295.4547,11.69,12.65,47.84626,-54.09684
2021-07-06 08:09:01+00:00,299.2513,11.69,12.65,47.84626,-54.09684
2021-07-06 08:19:00+00:00,301.0164,11.68,12.65,47.84626,-54.09684
2021-07-06 08:29:00+00:00,297.5497,11.67,12.65,47.84626,-54.09684
2021-07-06 08:39:00+00:00,297.993,11.67,12.65,47.84626,-54.09684
2021-07-06 08:49:00+00:00,302.093,11.68,12.65,47.84626,-54.09684
2021-07-06 08:59:00+00:00,305.653,11.67,12.65,47.84626,-54.09684
2021-07-06 09:09:00+00:00,305.6213,11.67,12.65,47.84626,-54.09684
2021-07-06 09:19:00+00:00,305.5147,11.68,12.65,47.84626,-54.09684
2021-07-06 09:29:00+00:00,311.063,11.68,12.65,47.84626,-54.09684
2021-07-06 09:39:00+00:00,312.2797,11.69,12.65,47.84626,-54.09684
2021-07-06 09:49:00+00:00,306.598,11.67,12.65,47.84626,-54.09684
2021-07-06 09:59:00+00:00,305.758,11.67,12.65,47.84626,-54.09684
2021-07-06 10:09:00+00:00,309.3513,11.67,12.65,47.84626,-54.09684
2021-07-06 10:19:01+00:00,305.298,11.67,12.65,47.84626,-54.09684
2021-07-06 10:29:01+00:00,298.4897,11.67,12.65,47.84626,-54.09684
2021-07-06 10:39:01+00:00,298.8963,11.67,12.65,47.84626,-54.09684
2021-07-06 10:49:01+00:00,298.8196,11.68,12.65,47.84626,-54.09684
2021-07-06 10:59:01+00:00,290.4348,11.67,12.65,47.84626,-54.09684
2021-07-06 11:09:01+00:00,286.1814,11.68,12.65,47.84626,-54.09684
2021-07-06 11:19:01+00:00,288.303,11.68,12.73,47.84626,-54.09684
2021-07-06 11:29:01+00:00,282.7881,11.68,12.73,47.84626,-54.09684
2021-07-06 11:39:01+00:00,273.7914,11.68,12.73,47.84626,-54.09684
2021-07-06 11:49:01+00:00,269.6997,11.69,12.73,47.84626,-54.09684
2021-07-06 11:59:01+00:00,268.2547,11.68,12.73,47.84626,-54.09684
2021-07-06 12:09:01+00:00,259.5214,11.69,12.73,47.84626,-54.09684
2021-07-06 12:19:01+00:00,254.4081,11.69,13.29,47.84626,-54.09684
2021-07-06 12:29:01+00:00,254.0981,11.7,13.29,47.84626,-54.09684
2021-07-06 12:39:01+00:00,252.1731,11.7,13.29,47.84626,-54.09684
2021-07-06 12:49:01+00:00,243.5514,11.7,13.29,47.84626,-54.09684
2021-07-06 12:59:01+00:00,239.8831,11.7,13.29,47.84626,-54.09684
2021-07-06 13:09:01+00:00,240.5198,11.7,13.29,47.84626,-54.09684
2021-07-06 13:19:01+00:00,239.1481,11.7,14.4,47.84626,-54.09684
2021-07-06 13:29:01+00:00,233.3264,11.7,14.4,47.84626,-54.09684
2021-07-06 13:39:01+00:00,229.9398,11.7,14.4,47.84626,-54.09684
2021-07-06 13:49:01+00:00,228.1697,11.7,14.4,47.84626,-54.09684
2021-07-06 13:59:01+00:00,225.3465,11.7,14.4,47.84626,-54.09684
2021-07-06 14:09:01+00:00,221.4798,11.7,14.4,47.84626,-54.09684
2021-07-06 14:19:01+00:00,217.9798,11.7,14.4,47.84626,-54.09684
2021-07-06 14:29:01+00:00,216.1615,11.7,14.4,47.84626,-54.09684
2021-07-06 14:39:01+00:00,212.5048,11.71,14.4,47.84626,-54.09684
2021-07-06 14:49:01+00:00,209.6231,11.76,14.4,47.84626,-54.09684
2021-07-06 14:59:01+00:00,209.2714,11.8,14.4,47.84626,-54.09684
2021-07-06 15:09:01+00:00,211.0714,11.8,14.4,47.84626,-54.09684
2021-07-06 15:19:01+00:00,211.7815,11.86,14.24,47.84626,-54.09684
2021-07-06 15:29:01+00:00,212.3148,11.9,14.24,47.84626,-54.09684
2021-07-06 15:39:01+00:00,214.3698,11.9,14.24,47.84626,-54.09684
2021-07-06 15:49:01+00:00,214.7365,11.9,14.24,47.84626,-54.09684
2021-07-06 15:59:01+00:00,216.3264,11.9,14.24,47.84626,-54.09684
2021-07-06 16:09:01+00:00,220.4547,11.95,14.24,47.84626,-54.09684
2021-07-06 16:19:01+00:00,222.373,11.99,14.24,47.84626,-54.09684
2021-07-06 16:29:01+00:00,224.2897,12.0,14.24,47.84626,-54.09684
2021-07-06 16:39:01+00:00,229.5297,12.0,14.24,47.84626,-54.09684
2021-07-06 16:49:01+00:00,235.2115,12.0,14.24,47.84626,-54.09684
2021-07-06 16:59:01+00:00,238.9847,12.0,14.24,47.84626,-54.09684
2021-07-06 17:09:01+00:00,241.8314,12.0,14.24,47.84626,-54.09684
2021-07-06 17:19:01+00:00,246.8447,12.0,14.08,47.84626,-54.09684
2021-07-06 17:29:01+00:00,253.6381,12.0,14.08,47.84626,-54.09684
2021-07-06 17:39:01+00:00,258.7498,11.97,14.08,47.84626,-54.09684
2021-07-06 17:49:01+00:00,259.4714,11.91,14.08,47.84626,-54.09684
2021-07-06 17:59:01+00:00,259.8197,11.9,14.08,47.84626,-54.09684
2021-07-06 18:09:01+00:00,267.0681,11.9,14.08,47.84626,-54.09684
2021-07-06 18:19:01+00:00,275.9031,11.9,13.84,47.84626,-54.09684
2021-07-06 18:29:01+00:00,277.238,11.9,13.84,47.84626,-54.09684
2021-07-06 18:39:01+00:00,278.1863,11.9,13.84,47.84626,-54.09684
2021-07-06 18:49:01+00:00,287.0013,11.9,13.84,47.84626,-54.09684
2021-07-06 18:59:01+00:00,295.323,11.9,13.84,47.84626,-54.09684
2021-07-06 19:09:01+00:00,294.553,11.9,13.84,47.84626,-54.09684
2021-07-06 19:19:01+00:00,297.193,11.9,13.84,47.84626,-54.09684
2021-07-06 19:29:01+00:00,306.6546,11.9,13.84,47.84626,-54.09684
2021-07-06 19:39:01+00:00,312.4064,11.9,13.84,47.84626,-54.09684
2021-07-06 19:49:01+00:00,310.8464,11.92,13.84,47.84626,-54.09684
2021-07-06 19:59:01+00:00,316.823,11.98,13.84,47.84626,-54.09684
2021-07-06 20:09:01+00:00,325.9663,11.99,13.84,47.84626,-54.09684
2021-07-06 20:19:01+00:00,327.473,11.99,13.76,47.84626,-54.09684
2021-07-06 20:29:01+00:00,325.1113,12.0,13.76,47.84626,-54.09684
2021-07-06 20:39:01+00:00,331.4163,12.0,13.76,47.84626,-54.09684
2021-07-06 20:49:01+00:00,335.4997,12.0,13.76,47.84626,-54.09684
2021-07-06 20:59:01+00:00,332.8847,12.0,13.76,47.84626,-54.09684
2021-07-06 21:09:01+00:00,330.8414,12.0,13.76,47.84626,-54.09684
2021-07-06 21:19:01+00:00,336.0197,12.0,13.76,47.84626,-54.09684
2021-07-06 21:29:01+00:00,336.80800000000005,12.0,13.76,47.84626,-54.09684
2021-07-06 21:39:01+00:00,334.8479,12.0,13.76,47.84626,-54.09684
2021-07-06 21:49:01+00:00,334.3914,12.0,13.76,47.84626,-54.09684
2021-07-06 21:59:01+00:00,337.0779,12.0,13.76,47.84626,-54.09684
2021-07-06 22:09:01+00:00,336.1313,12.0,13.76,47.84626,-54.09684
2021-07-06 22:19:01+00:00,336.8013,12.0,13.6,47.84626,-54.09684
2021-07-06 22:29:01+00:00,339.3347,12.0,13.6,47.84626,-54.09684
2021-07-06 22:39:01+00:00,338.528,12.0,13.6,47.84626,-54.09684
2021-07-06 22:49:01+00:00,334.3879,12.0,13.6,47.84626,-54.09684
2021-07-06 22:59:01+00:00,329.6096,12.0,13.6,47.84626,-54.09684
2021-07-06 23:09:01+00:00,330.2279,12.0,13.6,47.84626,-54.09684
2021-07-06 23:19:01+00:00,330.61800000000005,12.0,13.29,47.84626,-54.09684
2021-07-06 23:29:01+00:00,324.7613,12.0,13.29,47.84626,-54.09684
2021-07-06 23:39:01+00:00,317.4997,12.01,13.29,47.84626,-54.09684
2021-07-06 23:49:01+00:00,312.858,12.05,13.29,47.84626,-54.09684
2021-07-06 23:59:01+00:00,307.9647,12.03,13.29,47.84626,-54.09684
